Location: La B�doule
(43.2468°N, 5.5934°E)
Time: 23:41:20
(UTC+00:00)

SL-24 DEB - Pass Details

Date: 07 June 2020
Orbit: 665 x 701 km, 92.0° (Epoch: 11 July)

Event Time Altitude Azimuth Distance (km) Brightness Sun altitude
Rises 02:36:12 0° 4° (N) 3,019 8.5 -12.1°
Reaches altitude 10° 02:38:27 10° 3° (N) 2,099 7.6 -11.9°
Maximum altitude 02:43:04 83° 278° (W) 676 4.2 -11.3°
Drops below altitude 10° 02:47:39 10° 189° (S) 2,082 6.3 -10.7°
Enters shadow 02:47:53 - 189° (S) 2,178 6.4 -10.7°
